Simultaneous Nadir Overpasses (SNOs) Predictions

Prediction of SNOs between GOES-17 and AQUA Satellite Orbit:

Table of predicted SNOs for the next 14.0 days since TLE Epoch: 3/4/2023
Index Date Time (GOES-17) GOES-17 Lat,Lon AQUA Lat,Lon Distance(km) Time Diff (sec)
1 03/04/2023 08:49:19 -0.00,-104.70 0.22,-105.60 103.04 80
2 03/06/2023 08:33:12 -0.01,-104.70 -0.52,-102.33 270.57 80
3 03/06/2023 20:54:17 0.01,-104.71 -0.54,-107.44 309.96 80
4 03/08/2023 20:43:28 0.01,-104.71 0.15,-104.15 64.66 80
5 03/10/2023 20:29:58 0.01,-104.72 0.85,-100.86 439.68 80
6 03/11/2023 08:50:53 -0.01,-104.72 0.22,-105.93 136.20 80
7 03/13/2023 08:34:41 -0.01,-104.73 -0.44,-102.62 238.86 80
8 03/13/2023 20:55:44 0.01,-104.72 -0.62,-107.73 341.82 80
9 03/15/2023 20:44:52 0.01,-104.72 0.06,-104.42 33.23 80
10 03/17/2023 20:31:19 0.02,-104.71 0.80,-101.12 408.49 80
